TimeEDT,TemperatureF,Dew PointF,Humidity,Sea Level PressureIn,VisibilityMPH,Wind Direction,Wind SpeedMPH,Gust SpeedMPH,PrecipitationIn,Events,Conditions,WindDirDegrees,DateUTC
12:54 AM,64.0,57.0,78,30.21,10.0,WSW,3.5,-,N/A,,Clear,250,2013-08-26 04:54:00
1:54 AM,64.9,57.0,75,30.22,10.0,South,4.6,-,N/A,,Mostly Cloudy,190,2013-08-26 05:54:00
2:54 AM,64.9,57.0,75,30.17,10.0,SW,8.1,-,N/A,,Scattered Clouds,230,2013-08-26 06:54:00
3:54 AM,66.0,55.9,70,30.16,10.0,SW,9.2,-,N/A,,Scattered Clouds,230,2013-08-26 07:54:00
4:54 AM,64.9,57.0,75,30.18,10.0,SW,3.5,-,N/A,,Mostly Cloudy,220,2013-08-26 08:54:00
5:54 AM,64.0,57.9,80,30.17,10.0,Calm,Calm,-,N/A,,Overcast,0,2013-08-26 09:54:00
6:54 AM,64.0,57.0,78,30.16,10.0,SW,4.6,-,N/A,,Partly Cloudy,230,2013-08-26 10:54:00
7:54 AM,64.9,57.9,78,30.14,10.0,SSW,4.6,-,N/A,,Overcast,210,2013-08-26 11:54:00
8:54 AM,66.0,57.9,75,30.13,10.0,SSW,9.2,-,N/A,,Overcast,210,2013-08-26 12:54:00
9:54 AM,69.1,59.0,70,30.12,10.0,SSW,10.4,-,N/A,,Overcast,210,2013-08-26 13:54:00
10:54 AM,69.1,61.0,75,30.11,10.0,SSW,8.1,-,N/A,,Overcast,200,2013-08-26 14:54:00
11:54 AM,70.0,62.1,76,30.08,10.0,SSW,6.9,-,0.00,,Overcast,200,2013-08-26 15:54:00
12:54 PM,72.0,63.0,73,30.06,10.0,SSW,9.2,-,N/A,,Mostly Cloudy,200,2013-08-26 16:54:00
1:54 PM,73.9,64.9,73,30.03,10.0,South,5.8,-,N/A,,Mostly Cloudy,190,2013-08-26 17:54:00
2:54 PM,78.1,66.9,68,30.00,10.0,SW,8.1,-,N/A,,Clear,220,2013-08-26 18:54:00
3:54 PM,79.0,66.9,66,29.97,10.0,SSW,10.4,-,N/A,,Overcast,210,2013-08-26 19:54:00
4:54 PM,73.9,66.9,79,29.97,10.0,SW,6.9,-,0.00,Rain,Light Rain,230,2013-08-26 20:54:00
5:54 PM,75.0,68.0,79,29.96,10.0,SW,6.9,-,0.00,,Partly Cloudy,230,2013-08-26 21:54:00
6:54 PM,73.9,68.0,82,29.95,10.0,SSW,4.6,-,N/A,,Clear,210,2013-08-26 22:54:00
7:54 PM,73.0,68.0,84,29.95,10.0,Calm,Calm,-,N/A,,Overcast,0,2013-08-26 23:54:00
8:21 PM,71.6,69.8,94,29.98,1.8,West,12.7,21.9,N/A,Rain,Heavy Rain,280,2013-08-27 00:21:00
8:35 PM,71.6,69.8,94,29.97,3.0,West,6.9,18.4,N/A,Rain,Rain,260,2013-08-27 00:35:00
8:54 PM,71.1,68.0,90,29.97,5.0,SW,4.6,-,N/A,Rain,Rain,220,2013-08-27 00:54:00
9:54 PM,70.0,68.0,93,29.95,6.0,SSW,4.6,-,0.08,Rain,Light Rain,200,2013-08-27 01:54:00
10:44 PM,69.8,68.0,94,29.93,7.0,Calm,Calm,-,0.05,Rain,Light Rain,0,2013-08-27 02:44:00
10:54 PM,70.0,68.0,93,29.92,7.0,Calm,Calm,-,0.06,Rain,Light Rain,0,2013-08-27 02:54:00
11:31 PM,69.8,68.0,94,29.91,2.5,ESE,3.5,-,0.04,Rain,Heavy Rain,120,2013-08-27 03:31:00
11:35 PM,69.8,68.0,94,29.91,3.0,SSE,4.6,-,0.05,Rain,Light Rain,160,2013-08-27 03:35:00
11:54 PM,69.1,68.0,96,29.91,3.0,Calm,Calm,-,0.07,Rain,Rain,0,2013-08-27 03:54:00